Time,TemperatureF,DewpointF,PressureIn,WindDirection,WindDirectionDegrees,WindSpeedMPH,WindSpeedGustMPH,Humidity,HourlyPrecipIn,Conditions,Clouds,dailyrainin,SolarRadiationWatts/m^2,SoftwareType,DateUTC
2013-04-12 00:03:00,51.0,51.0,-100.00,ENE,61,7.0,21.0,99,0.41,,,0.61,0.000000,,2013-04-12 04:03:00,
2013-04-12 00:23:00,51.0,51.0,-100.00,ENE,61,7.0,21.0,99,0.41,,,0.61,0.000000,,2013-04-12 04:23:00,
2013-04-12 00:33:00,51.0,51.0,-100.00,ENE,61,7.0,21.0,99,0.41,,,0.61,0.000000,,2013-04-12 04:33:00,
2013-04-12 00:43:00,51.0,51.0,-100.00,ENE,61,7.0,21.0,99,0.41,,,0.61,0.000000,,2013-04-12 04:43:00,
2013-04-12 00:53:00,51.0,51.0,-100.00,ENE,61,7.0,21.0,99,0.41,,,0.61,0.000000,,2013-04-12 04:53:00,
2013-04-12 01:32:00,50.0,50.0,-100.00,NNW,348,7.0,17.0,99,0.17,,,0.78,0.000000,,2013-04-12 05:32:00,
2013-04-12 01:42:00,50.0,50.0,-100.00,NNW,348,7.0,17.0,99,0.17,,,0.78,0.000000,,2013-04-12 05:42:00,
2013-04-12 01:52:00,50.0,50.0,-100.00,NNW,348,7.0,17.0,99,0.17,,,0.78,0.000000,,2013-04-12 05:52:00,
2013-04-12 02:02:00,50.0,50.0,-100.00,NNW,348,7.0,17.0,99,0.17,,,0.78,0.000000,,2013-04-12 06:02:00,
2013-04-12 02:32:00,49.0,49.0,-100.00,North,11,8.0,17.0,100,0.12,,,0.90,0.000000,,2013-04-12 06:32:00,
2013-04-12 02:42:00,49.0,49.0,-100.00,North,11,8.0,17.0,100,0.12,,,0.90,0.000000,,2013-04-12 06:42:00,
2013-04-12 02:52:00,49.0,49.0,-100.00,North,11,8.0,17.0,100,0.12,,,0.90,0.000000,,2013-04-12 06:52:00,
2013-04-12 03:02:00,49.0,49.0,-100.00,North,11,8.0,17.0,100,0.12,,,0.90,0.000000,,2013-04-12 07:02:00,
2013-04-12 03:03:00,49.0,49.0,-100.00,WNW,289,21.0,44.0,99,0.01,,,0.91,0.000000,,2013-04-12 07:03:00,
2013-04-12 03:32:00,49.0,49.0,-100.00,WNW,289,21.0,44.0,99,0.01,,,0.91,0.000000,,2013-04-12 07:32:00,
2013-04-12 03:42:00,49.0,49.0,-100.00,WNW,289,21.0,44.0,99,0.01,,,0.91,0.000000,,2013-04-12 07:42:00,
2013-04-12 03:52:00,49.0,49.0,-100.00,WNW,289,21.0,44.0,99,0.01,,,0.91,0.000000,,2013-04-12 07:52:00,
2013-04-12 04:22:00,49.0,49.0,-100.00,NNW,343,10.0,35.0,99,0.03,,,-99.99,0.000000,,2013-04-12 08:22:00,
2013-04-12 04:32:00,49.0,49.0,-100.00,NNW,343,10.0,35.0,99,0.03,,,-99.99,0.000000,,2013-04-12 08:32:00,
2013-04-12 04:43:00,49.0,49.0,-100.00,NNW,343,10.0,35.0,99,0.03,,,-99.99,0.000000,,2013-04-12 08:43:00,
2013-04-12 04:53:00,49.0,49.0,-100.00,NNW,343,10.0,35.0,99,0.03,,,-99.99,0.000000,,2013-04-12 08:53:00,
2013-04-12 05:02:00,49.0,49.0,-100.00,NNW,343,10.0,35.0,99,0.03,,,-99.99,0.000000,,2013-04-12 09:02:00,
2013-04-12 05:03:00,50.0,50.0,-100.00,NNW,341,9.0,25.0,99,0.04,,,0.98,0.000000,,2013-04-12 09:03:00,
2013-04-12 05:22:00,50.0,50.0,-100.00,NNW,341,9.0,25.0,99,0.04,,,0.98,0.000000,,2013-04-12 09:22:00,
2013-04-12 05:33:00,50.0,50.0,-100.00,NNW,341,9.0,25.0,99,0.04,,,0.98,0.000000,,2013-04-12 09:33:00,
2013-04-12 05:44:00,50.0,50.0,-100.00,NNW,341,9.0,25.0,99,0.04,,,0.98,0.000000,,2013-04-12 09:44:00,
2013-04-12 05:53:00,50.0,50.0,-100.00,NNW,341,9.0,25.0,99,0.04,,,0.98,0.000000,,2013-04-12 09:53:00,
2013-04-12 06:03:00,50.0,50.0,-100.00,East,86,6.0,20.0,100,0.00,,,0.98,0.000000,,2013-04-12 10:03:00,
2013-04-12 06:34:00,50.0,50.0,-100.00,East,86,6.0,20.0,100,0.00,,,0.98,0.000000,,2013-04-12 10:34:00,
2013-04-12 06:43:00,50.0,50.0,-100.00,East,86,6.0,20.0,100,0.00,,,0.98,0.000000,,2013-04-12 10:43:00,
2013-04-12 06:53:00,50.0,50.0,-100.00,East,86,6.0,20.0,100,0.00,,,0.98,0.000000,,2013-04-12 10:53:00,
2013-04-12 07:03:00,49.0,49.0,-100.00,NNE,12,5.0,17.0,100,0.00,,,0.98,0.000000,,2013-04-12 11:03:00,
2013-04-12 07:22:00,49.0,49.0,-100.00,NNE,12,5.0,17.0,100,0.00,,,0.98,0.000000,,2013-04-12 11:22:00,
2013-04-12 07:33:00,49.0,49.0,-100.00,NNE,12,5.0,17.0,100,0.00,,,0.98,0.000000,,2013-04-12 11:33:00,
2013-04-12 07:43:00,49.0,49.0,-100.00,NNE,12,5.0,17.0,100,0.00,,,0.98,0.000000,,2013-04-12 11:43:00,
2013-04-12 07:52:00,49.0,49.0,-100.00,NNE,12,5.0,17.0,100,0.00,,,0.98,0.000000,,2013-04-12 11:52:00,
2013-04-12 08:03:00,48.0,48.0,-100.00,NW,323,7.0,21.0,100,0.04,,,1.02,7.000000,,2013-04-12 12:03:00,
2013-04-12 08:22:00,48.0,48.0,-100.00,NW,323,7.0,21.0,100,0.04,,,1.02,7.000000,,2013-04-12 12:22:00,
2013-04-12 08:33:00,48.0,48.0,-100.00,NW,323,7.0,21.0,100,0.04,,,1.02,7.000000,,2013-04-12 12:33:00,
2013-04-12 08:43:00,48.0,48.0,-100.00,NW,323,7.0,21.0,100,0.04,,,1.02,7.000000,,2013-04-12 12:43:00,
2013-04-12 08:53:00,48.0,48.0,-100.00,NW,323,7.0,21.0,100,0.04,,,1.02,7.000000,,2013-04-12 12:53:00,
2013-04-12 09:03:00,49.0,48.0,-100.00,NW,322,5.0,15.0,98,0.00,,,1.02,185.000000,,2013-04-12 13:03:00,
2013-04-12 09:22:00,49.0,48.0,-100.00,NW,322,5.0,15.0,98,0.00,,,1.02,185.000000,,2013-04-12 13:22:00,
2013-04-12 09:32:00,49.0,48.0,-100.00,NW,322,5.0,15.0,98,0.00,,,1.02,185.000000,,2013-04-12 13:32:00,
2013-04-12 09:43:00,49.0,48.0,-100.00,NW,322,5.0,15.0,98,0.00,,,1.02,185.000000,,2013-04-12 13:43:00,
2013-04-12 09:53:00,49.0,48.0,-100.00,NW,322,5.0,15.0,98,0.00,,,1.02,185.000000,,2013-04-12 13:53:00,
2013-04-12 10:03:00,51.0,49.0,-100.00,North,3,5.0,17.0,92,0.00,,,1.02,401.000000,,2013-04-12 14:03:00,
2013-04-12 10:23:00,51.0,49.0,-100.00,North,3,5.0,17.0,92,0.00,,,1.02,401.000000,,2013-04-12 14:23:00,
2013-04-12 10:33:00,51.0,49.0,-100.00,North,3,5.0,17.0,92,0.00,,,1.02,401.000000,,2013-04-12 14:33:00,
2013-04-12 10:43:00,51.0,49.0,-100.00,North,3,5.0,17.0,92,0.00,,,1.02,401.000000,,2013-04-12 14:43:00,
2013-04-12 10:54:00,51.0,49.0,-100.00,North,3,5.0,17.0,92,0.00,,,1.02,401.000000,,2013-04-12 14:54:00,
2013-04-12 11:03:00,52.0,48.0,-100.00,NW,313,5.0,10.0,85,0.00,,,-99.99,550.000000,,2013-04-12 15:03:00,
2013-04-12 11:33:00,52.0,48.0,-100.00,NW,313,5.0,10.0,85,0.00,,,-99.99,550.000000,,2013-04-12 15:33:00,
2013-04-12 11:43:00,52.0,48.0,-100.00,NW,313,5.0,10.0,85,0.00,,,-99.99,550.000000,,2013-04-12 15:43:00,
2013-04-12 11:53:00,52.0,48.0,-100.00,NW,313,5.0,10.0,85,0.00,,,-99.99,550.000000,,2013-04-12 15:53:00,
2013-04-12 12:03:00,55.0,46.0,-100.00,NW,319,7.0,16.0,72,0.00,,,-99.99,814.000000,,2013-04-12 16:03:00,
2013-04-12 12:34:00,55.0,46.0,-100.00,NW,319,7.0,16.0,72,0.00,,,-99.99,814.000000,,2013-04-12 16:34:00,
2013-04-12 12:43:00,55.0,46.0,-100.00,NW,319,7.0,16.0,72,0.00,,,-99.99,814.000000,,2013-04-12 16:43:00,
2013-04-12 12:53:00,55.0,46.0,-100.00,NW,319,7.0,16.0,72,0.00,,,-99.99,814.000000,,2013-04-12 16:53:00,
2013-04-12 13:03:00,58.0,45.0,-100.00,NW,326,4.0,14.0,61,0.00,,,1.02,969.000000,,2013-04-12 17:03:00,
2013-04-12 13:34:00,58.0,45.0,-100.00,NW,326,4.0,14.0,61,0.00,,,1.02,969.000000,,2013-04-12 17:34:00,
2013-04-12 13:47:00,58.0,45.0,-100.00,NW,326,4.0,14.0,61,0.00,,,1.02,969.000000,,2013-04-12 17:47:00,
2013-04-12 14:03:00,57.0,42.0,-100.00,NNE,13,6.0,10.0,58,0.00,,,1.02,1003.000000,,2013-04-12 18:03:00,
2013-04-12 15:33:00,54.0,44.0,-100.00,NNE,19,6.0,15.0,70,0.00,,,1.02,973.000000,,2013-04-12 19:33:00,
2013-04-12 15:43:00,54.0,44.0,-100.00,NNE,19,6.0,15.0,70,0.00,,,1.02,973.000000,,2013-04-12 19:43:00,
2013-04-12 15:53:00,54.0,44.0,-100.00,NNE,19,6.0,15.0,70,0.00,,,1.02,973.000000,,2013-04-12 19:53:00,
2013-04-12 16:02:00,54.0,44.0,-100.00,NNE,19,6.0,15.0,70,0.00,,,1.02,973.000000,,2013-04-12 20:02:00,
2013-04-12 16:33:00,57.0,43.0,-100.00,North,2,5.0,12.0,59,0.00,,,1.02,868.000000,,2013-04-12 20:33:00,
2013-04-12 16:43:00,57.0,43.0,-100.00,North,2,5.0,12.0,59,0.00,,,1.02,868.000000,,2013-04-12 20:43:00,
2013-04-12 16:52:00,57.0,43.0,-100.00,North,2,5.0,12.0,59,0.00,,,1.02,868.000000,,2013-04-12 20:52:00,
2013-04-12 17:02:00,57.0,43.0,-100.00,North,2,5.0,12.0,59,0.00,,,1.02,868.000000,,2013-04-12 21:02:00,
2013-04-12 17:33:00,56.0,41.0,-100.00,NE,40,9.0,17.0,58,0.00,,,1.02,709.000000,,2013-04-12 21:33:00,
2013-04-12 17:43:00,56.0,41.0,-100.00,NE,40,9.0,17.0,58,0.00,,,1.02,709.000000,,2013-04-12 21:43:00,
2013-04-12 17:53:00,56.0,41.0,-100.00,NE,40,9.0,17.0,58,0.00,,,1.02,709.000000,,2013-04-12 21:53:00,
2013-04-12 18:02:00,56.0,41.0,-100.00,NE,40,9.0,17.0,58,0.00,,,1.02,709.000000,,2013-04-12 22:02:00,
2013-04-12 18:03:00,55.0,38.0,-100.00,NNE,26,7.0,14.0,52,0.00,,,1.02,510.000000,,2013-04-12 22:03:00,
2013-04-12 18:33:00,55.0,38.0,-100.00,NNE,26,7.0,14.0,52,0.00,,,1.02,510.000000,,2013-04-12 22:33:00,
2013-04-12 18:43:00,55.0,38.0,-100.00,NNE,26,7.0,14.0,52,0.00,,,1.02,510.000000,,2013-04-12 22:43:00,
2013-04-12 18:52:00,55.0,38.0,-100.00,NNE,26,7.0,14.0,52,0.00,,,1.02,510.000000,,2013-04-12 22:52:00,
2013-04-12 19:22:00,53.0,37.0,-100.00,NNE,26,11.0,22.0,55,0.00,,,1.02,277.000000,,2013-04-12 23:22:00,
2013-04-12 19:32:00,53.0,37.0,-100.00,NNE,26,11.0,22.0,55,0.00,,,1.02,277.000000,,2013-04-12 23:32:00,
2013-04-12 19:42:00,53.0,37.0,-100.00,NNE,26,11.0,22.0,55,0.00,,,1.02,277.000000,,2013-04-12 23:42:00,
2013-04-12 19:52:00,53.0,37.0,-100.00,NNE,26,11.0,22.0,55,0.00,,,1.02,277.000000,,2013-04-12 23:52:00,
2013-04-12 20:02:00,53.0,37.0,-100.00,NNE,26,11.0,22.0,55,0.00,,,1.02,277.000000,,2013-04-13 00:02:00,
2013-04-12 20:32:00,43.0,33.0,-100.00,NNE,31,17.0,25.0,67,0.00,,,0.94,43.000000,,2013-04-13 00:32:00,
2013-04-12 20:42:00,43.0,33.0,-100.00,NNE,31,17.0,25.0,67,0.00,,,0.94,43.000000,,2013-04-13 00:42:00,
2013-04-12 20:52:00,43.0,33.0,-100.00,NNE,31,17.0,25.0,67,0.00,,,0.94,43.000000,,2013-04-13 00:52:00,
2013-04-12 21:02:00,43.0,33.0,-100.00,NNE,31,17.0,25.0,67,0.00,,,0.94,43.000000,,2013-04-13 01:02:00,
2013-04-12 21:23:00,38.0,32.0,-100.00,NNE,17,11.0,27.0,78,0.00,,,0.91,0.000000,,2013-04-13 01:23:00,
2013-04-12 21:33:00,38.0,32.0,-100.00,NNE,17,11.0,27.0,78,0.00,,,0.91,0.000000,,2013-04-13 01:33:00,
2013-04-12 21:43:00,38.0,32.0,-100.00,NNE,17,11.0,27.0,78,0.00,,,0.91,0.000000,,2013-04-13 01:43:00,
2013-04-12 21:52:00,38.0,32.0,-100.00,NNE,17,11.0,27.0,78,0.00,,,0.91,0.000000,,2013-04-13 01:52:00,
2013-04-12 22:02:00,38.0,32.0,-100.00,NNE,17,11.0,27.0,78,0.00,,,0.91,0.000000,,2013-04-13 02:02:00,
2013-04-12 22:03:00,37.0,30.0,-100.00,NNE,13,9.0,19.0,76,0.00,,,0.90,0.000000,,2013-04-13 02:03:00,
2013-04-12 22:23:00,37.0,30.0,-100.00,NNE,13,9.0,19.0,76,0.00,,,0.90,0.000000,,2013-04-13 02:23:00,
2013-04-12 22:33:00,37.0,30.0,-100.00,NNE,13,9.0,19.0,76,0.00,,,0.90,0.000000,,2013-04-13 02:33:00,
2013-04-12 22:43:00,37.0,30.0,-100.00,NNE,13,9.0,19.0,76,0.00,,,0.90,0.000000,,2013-04-13 02:43:00,
2013-04-12 22:53:00,37.0,30.0,-100.00,NNE,13,9.0,19.0,76,0.00,,,0.90,0.000000,,2013-04-13 02:53:00,
2013-04-12 23:03:00,37.0,31.0,-100.00,NNE,21,11.0,20.0,80,0.00,,,0.82,0.000000,,2013-04-13 03:03:00,
2013-04-12 23:33:00,37.0,31.0,-100.00,NNE,21,11.0,20.0,80,0.00,,,0.82,0.000000,,2013-04-13 03:33:00,
2013-04-12 23:43:00,37.0,31.0,-100.00,NNE,21,11.0,20.0,80,0.00,,,0.82,0.000000,,2013-04-13 03:43:00,
2013-04-12 23:54:00,37.0,31.0,-100.00,NNE,21,11.0,20.0,80,0.00,,,0.82,0.000000,,2013-04-13 03:54:00,